Regional Weather Roundup
Issued by NWS

Home | Current Version | Previous Version | Graphics & Text | Print | Product List | Glossary On
Versions: 1 2 3 4 5 6 7 8 9 10 11 12 13 14 15 16 17 18 19 20 21 22 23 24 25 26 27 28 29 30 31 32 33 34 35 36 37 38 39 40 41 42 43 44 45 46 47 48 49 50
912
ASUS43 KFSD 290310
RWRSD

WEATHER ROUNDUP FOR SOUTH DAKOTA
NATIONAL WEATHER SERVICE SIOUX FALLS SD
1000 PM CDT THU APR 28 2016

NOTE: "FAIR" INDICATES FEW OR NO CLOUDS BELOW 12,000 FEET WITH NO
SIGNIFICANT WEATHER AND/OR OBSTRUCTIONS TO VISIBILITY.


SDZ001>005-009-010-012>017-290400-
NORTHWEST AND NORTH CENTRAL SOUTH DAKOTA

CITY           SKY/WX    TMP DP  RH WIND       PRES   REMARKS
BUFFALO          N/A     38  34  85 SW5       30.07R
FAITH            N/A     36  30  79 NW10      30.12R
MOBRIDGE       CLOUDY    48  40  73 CALM      30.10R
$$

SDZ012>016-024>037-041>051-057-063-072>074-290400-
SOUTHWEST AND SOUTH CENTRAL SOUTH DAKOTA

CITY           SKY/WX    TMP DP  RH WIND       PRES   REMARKS
RAPID CTY ARPT CLOUDY    37  34  89 N3        30.13R
PIERRE         CLOUDY    44  35  70 CALM      30.12R
CUSTER         CLOUDY    31  28  89 E6        30.07R FOG     WCI  25
PHILIP         CLOUDY    41  35  79 N8        30.13R
PINE RIDGE     CLOUDY    37  35  92 NE9       30.11R
WINNER         CLOUDY    43  38  82 NE3       30.12R
$$

SDZ004>011-016>023-039-040-290400-
NORTHEAST SOUTH DAKOTA

CITY           SKY/WX    TMP DP  RH WIND       PRES   REMARKS
ABERDEEN       CLOUDY    45  37  73 S8        30.14R
WATERTOWN      CLOUDY    39  36  89 SE3       30.12R
BROOKINGS      MIX PCPN  37  36  96 NE7       30.11R FOG
SISSETON         N/A     44  36  73 SW7       30.13R
$$

SDZ017-020-022-023-036>040-048>070-290400-
SOUTHEAST SOUTH DAKOTA

CITY           SKY/WX    TMP DP  RH WIND       PRES   REMARKS
SIOUX FALLS    CLOUDY    38  35  89 NE8       30.11R
HURON          CLOUDY    39  36  89 NE7       30.13R
CHAMBERLAIN    CLOUDY    43  39  86 CALM      30.12R
MITCHELL       CLOUDY    40  36  86 NE7       30.13R
YANKTON        CLOUDY    43  37  81 N7        30.10R
$$

ABBREVIATIONS USED IN REMARKS
   TC - TEMPERATURE IN CELSIUS
  WCI - WIND CHILL INDEX
   HX - HEAT INDEX
  VSB - VISIBILITY





USA.gov is the U.S. government's official web portal to all federal, state and local government web resources and services.